SCP
0 0 0 0 0 0 0 0 0 0 0 0 0 0 0 0 0 0 0 0 0 0 0 0 0 0 0 0 0 0 0 0 0 0 0 0 0 0 0 0 0 0 0 0
0 0 0 0 0 0 0 0 0 0 0 0 0 0 0 0 0 0 0 0 0 0 0 0 0 0 0 0 0 0 0 0 0 0 0 0 0 0 0 0 0 0 0 0
0 0 0 0 0 0 0 0 0 0 0 0 0 0 0 0 0 0 0 0 0 0 0 0 0 0 0 0 0 0 0 0 0 0 0 0 0 0 0 0 0 0 0 0
0 0 0 0 0 0 0 0 0 0 0 0 0 0 0 0 0 0 0 0 0 0 0 0 0 0 0 0 0 0 0 0 0 0 0 0 0 0 0 0 0 0 0 0
0 0 0 0 0 0 0 0 0 0 0 0 0 0 -0 0 0 0 0 0 0 0 0 0 0 0 0 0 0 0 0 0 0 0 0 0 0 0 0 0 0 0 0 0
0 0 0 0 0 0 0 0 0 0 0 0 0 0 -0 -0 0 0 0 0 0 0 0 0 0 0 0 0 0 0 0 0 0 0 0 0 0 0 0 0 0 0 0 0
0 0 0 0 0 0 0 0 0 0 0 0 0 0 0 0 0 0 0 0 0 0 0 0 0 0 0 0 0 0 0 0 0 0 0 0 0 0 0 0 0 0 0 0
0 0 0 -0 -0 0 0 0 0 -0 0 0 0 0 0 0 0 0 0 0 0 0 0 0 0 0 0 0 0 0 0 0 0 0 0 0 0 0 0 0 0 0 0 0
0 0 0 -0 -0 -0 0 -0 0 0 0 -0 0 0 0 0 0 0 0 0 0 0 0 0 0 0 0 0 0 0 0 0 0 0 0 0 0 0 0 0 0 0 0 0
0 0 0 0 0 0 0 0 0 0 0 0 0 0 0 0 0 0 0 0 0 0 0 0 0 0 0 0 0 0 0 0 0 0 0 0 0 0 0 0 0 0 0 0
0 0 0 0 0 0 0 0 0 0 0 -0 0 0 0 0 0 0 0 0 0 0 0 0 0 0 0 0 0 0 0 0 0 0 0 0 0 0 0 0 0 0 0 0
0 0 0 0 0 0 0 0 0 0 0 0 -0 0 0 0 -0 0 0 0 0 0 0 0 0 0 0 0 0 0 0 0 0 0 0 0 0 0 0 0 0 0 0 0
0 0 0 0 0 0 0 0 0 0 0 0 0 0 -0 0 0 0 0 0 0 0 0 0 0 0 0 0 0 0 0 0 0 0 0 0 0 0 0 0 0 0 0 0
0 0 0 0 0 0 0 0 0 0 0 -0 0 0 0 0 0 0 0 0 0 0 0 0 0 0 0 0 0 0 0 0 0 0 0 0 0 0 0 0 0 0 0 0
0 0 0 0 0 0 0 0 0 0 -0 -0 -0 0 0 0 0 0 0 0 0 0 0 0 0 0 0 0 0 0 0 0 0 0 0 0 0 0 0 0 0 0 0 0
0 0 0 0 0 0 0 0 0 0 -0 -0 -0 0 0 0 0 0 0 0 0 0 0 0 0 0 0 0 0 0 0 0 0 0 0 0 0 0 0 0 0 0 0 0
0 0 0 0 0 0 0 0 0 0 -0 -0 0 0 0 0 0 0 0 0 0 0 0 0 0 0 0 0 0 0 0 0 0 0 0 0 0 0 0 0 0 0 0 0
0 0 0 0 0 -0 0 0 0 0 -0 0 0 0 0 0 0 0 0 0 0 0 0 0 0 0 0 0 0 0 0 0 0 0 0 0 0 0 0 0 0 0 0 0
0 0 0 0 0 0 0 0 -0 0 0 0 0 0 0 0 0 0 0 0 0 0 0 0 0 0 0 0 0 0 0 0 0 0 0 0 0 0 0 0 0 0 0 0
0 0 0 0 0 0 0 0 -0 0 0 0 0 0 0 0 0 0 0 0 0 0 0 0 0 0 0 0 0 0 0 0 0 0 0 0 0 0 0 0 0 0 0 0
0 0 0 0 0 0 0 0 0 0 0 0 0 0 0 0 0 0 0 0 0 0 0 0 0 0 0 0 0 0 0 0 0 0 0 0 0 0 0 0 0 0 0 0
0 0 0 0 0 0 0 0 0 0 0 0 0 0 0 0 0 0 0 0 0 0 0 0 0 0 0 0 0 0 0 0 0 0 0 0 0 0 0 0 0 0 0 0
0 0 0 0 0 0 0 0 0 0 0 0 0 0 0 0 0 0 0 0 0 0 0 0 0 0 0 0 0 0 0 0 0 0 0 0 0 0 0 0 0 0 0 0
0 0 0 0 0 0 -0 0 0 0 0 0 0 0 0 0 0 0 0 0 0 0 0 0 0 0 0 0 0 0 0 0 0 0 0 0 0 0 0 0 0 0 0 0
0 0 0 0 0 0 0 0 0 0 0 0 0 0 0 0 0 0 0 0 0 0 0 0 0 0 0 0 0 0 0 0 0 0 0 0 0 0 0 0 0 0 0 0
0 0 0 0 0 0 0 0 0 0 0 0 0 0 0 0 0 0 0 0 0 0 0 0 0 0 0 0 0 0 0 0 0 0 0 0 0 0 0 0 0 0 0 0
0 0 0 0 0 0 0 0 0 0 0 0 0 0 0 0 0 0 0 0 0 0 0 0 0 0 0 0 0 0 0 0 0 0 0 0 0 0 0 0 0 0 0 0
Wind_Speed_500mb
44 17 35 28 30 41 28 54 16 62 22 16 9 13 15 22 19 26 37 45 47 51 55 57 58 61 67 70 67 66 65 63 60 54 48 44 41 37 34 31 29 28 27 27
40 39 37 8 38 40 47 53 36 58 39 12 32 32 12 18 26 35 39 43 45 48 53 60 63 65 68 70 69 66 65 64 60 58 54 50 44 40 35 34 32 30 28 26
27 21 33 37 35 42 45 47 53 34 55 10 29 19 20 37 42 45 48 46 47 53 57 59 64 66 70 71 69 69 67 65 65 62 57 53 47 42 38 36 33 31 30 28
7 3 27 12 38 34 34 36 39 49 38 33 25 50 50 54 54 59 59 46 48 51 56 60 60 65 66 67 68 70 69 68 68 63 58 54 50 45 40 37 34 32 32 30
9 8 11 14 6 34 37 47 41 37 42 44 54 44 69 54 67 65 51 41 41 43 51 60 63 66 66 66 68 70 72 72 69 65 61 58 53 48 43 39 37 35 33 34
7 9 14 11 6 21 2 41 44 48 51 42 19 19 46 39 54 50 52 64 62 55 53 62 68 71 71 72 72 73 73 71 66 64 62 57 52 49 44 41 35 35 35 35
28 19 9 17 13 15 1 3 19 50 65 57 24 46 55 49 37 46 61 69 71 67 61 61 73 79 80 78 77 73 68 65 65 63 59 54 50 48 45 42 41 39 37 36
10 22 39 16 12 30 13 44 1 34 37 41 29 55 80 83 78 69 66 72 73 66 62 62 72 83 86 82 73 68 67 69 67 63 59 55 53 50 47 45 43 40 39 38
19 10 14 54 52 58 49 58 54 30 31 30 27 34 44 50 80 78 70 67 63 63 61 61 68 82 87 83 75 73 73 72 70 65 59 56 56 53 51 47 44 41 40 39
11 18 11 58 48 52 55 62 63 41 47 30 31 48 51 45 42 78 90 93 82 68 62 67 72 79 83 80 77 75 74 71 67 65 62 58 54 52 48 46 44 42 41 38
19 29 8 53 49 67 56 50 44 39 43 54 51 58 60 57 53 50 84 99 86 77 71 73 77 80 80 80 80 77 73 70 68 62 59 57 52 48 42 40 36 35 37 36
18 15 34 61 62 58 54 55 58 47 52 59 57 56 62 63 55 48 65 88 81 80 77 78 82 83 82 82 81 78 75 71 68 65 62 59 58 54 48 41 40 39 35 34
14 24 48 66 67 65 67 49 31 23 33 43 52 47 56 58 56 50 59 72 77 76 76 78 84 84 83 84 81 78 76 74 69 67 65 63 57 53 55 47 40 38 37 36
27 23 18 24 20 37 38 22 19 17 29 41 47 46 59 57 46 48 54 65 68 71 73 76 81 83 84 82 79 76 73 72 72 69 62 57 53 50 45 44 47 44 40 39
27 22 32 31 27 36 30 42 32 24 24 33 37 45 49 59 46 45 50 57 63 69 73 79 81 81 81 81 81 81 81 76 69 64 59 53 51 46 41 39 38 37 37 35
42 42 45 44 48 41 35 44 45 36 30 35 29 28 41 45 45 48 50 58 69 80 84 90 88 87 87 87 89 87 77 71 67 63 59 54 48 45 44 41 38 35 32 28
40 39 44 53 54 46 44 44 50 49 45 43 34 22 34 38 45 50 56 62 72 78 88 93 96 96 93 87 83 83 83 78 65 58 54 50 46 41 37 36 35 32 28 25
16 19 20 26 27 39 34 36 45 53 56 47 41 33 30 42 53 56 66 80 78 83 91 96 103 102 91 89 87 84 77 70 57 53 50 46 43 40 38 35 33 29 27 24
27 31 31 37 38 40 39 36 31 26 45 51 46 43 30 43 59 65 73 80 85 101 103 105 104 100 93 87 80 75 63 57 61 55 49 47 44 41 38 36 34 32 30 27
39 40 44 47 46 42 47 45 45 45 43 45 49 37 41 52 62 68 84 90 96 108 112 105 101 98 91 85 73 59 60 62 60 59 55 51 49 49 46 42 39 37 34 31
36 40 45 48 53 53 48 41 44 51 45 47 50 41 52 53 60 74 88 97 100 108 109 105 96 93 87 72 69 71 66 64 64 63 62 60 58 53 49 45 42 38 35 31
32 37 42 43 47 53 47 42 43 45 40 50 50 47 59 63 72 80 87 106 108 104 104 101 94 86 78 74 75 73 71 71 70 67 63 59 56 54 50 46 42 39 34 31
35 34 36 39 41 39 35 36 42 46 41 50 51 57 69 75 85 96 101 107 106 104 104 96 86 83 82 78 77 76 74 70 68 65 62 59 54 50 46 42 38 34 30 26
35 31 31 28 29 32 32 38 41 40 41 46 50 61 76 83 90 91 110 117 114 102 90 89 88 82 80 79 79 76 73 68 65 63 59 55 51 47 42 38 35 32 28 24
30 25 21 21 32 38 41 42 41 38 42 52 59 63 70 85 107 98 117 112 103 94 92 87 83 79 76 74 75 73 68 63 60 56 53 50 47 44 41 38 33 29 25 21
12 13 19 24 31 35 42 46 45 47 56 63 65 69 76 89 99 103 110 106 99 90 87 82 78 74 71 69 68 66 63 60 56 52 48 45 41 37 33 30 26 23 19 15
10 13 15 20 26 36 43 46 49 54 54 56 65 68 78 91 97 106 100 96 92 93 91 84 77 72 70 68 64 61 58 54 50 46 43 39 35 32 29 26 22 18 14 11
Wind_Direction_500mb
232 219 190 197 197 202 207 229 191 241 181 228 211 205 210 209 190 183 193 200 209 208 209 211 209 206 206 206 202 202 201 201 200 199 198 198 198 195 194 192 189 191 189 189
240 230 226 182 203 198 207 225 234 246 258 172 268 265 191 197 195 203 208 212 216 220 216 216 213 209 207 209 207 205 204 204 202 200 198 199 199 197 195 195 194 195 194 194
252 207 215 227 210 200 214 222 219 233 238 205 223 238 263 242 237 236 242 226 222 229 224 219 219 216 213 211 208 208 208 206 204 202 201 200 200 199 199 198 199 197 199 200
303 145 229 234 204 199 220 233 226 247 243 244 248 256 260 263 258 255 255 243 234 233 229 226 221 220 218 213 211 211 209 208 206 204 203 203 202 202 202 202 203 202 202 203
242 235 340 282 211 198 198 232 232 244 249 245 242 269 276 262 255 260 264 264 252 244 241 229 222 219 216 214 211 210 210 209 207 205 205 205 205 204 204 207 207 206 205 207
264 219 218 215 173 77 318 240 228 234 245 243 188 218 253 253 258 265 265 259 257 249 239 230 222 217 213 214 212 210 208 208 207 208 209 210 208 206 207 209 210 211 210 210
238 248 223 244 249 308 191 303 338 266 247 245 212 228 251 255 255 254 255 252 251 244 234 231 221 215 212 212 212 211 205 204 205 207 210 212 211 210 209 208 208 211 214 215
220 234 247 246 245 217 232 256 318 319 339 302 285 257 252 252 250 252 255 259 248 241 232 228 219 213 213 211 211 207 203 201 201 203 205 209 210 207 206 209 209 210 213 216
205 205 189 251 247 238 242 255 251 250 295 320 313 281 278 270 255 248 241 244 246 236 228 225 219 215 213 212 206 201 200 198 198 199 202 204 206 206 206 205 209 209 212 217
210 231 239 260 247 226 219 228 237 252 255 276 303 295 294 290 265 249 241 244 240 225 223 221 214 213 213 210 202 200 197 196 196 196 195 197 200 205 205 208 207 208 211 213
235 235 241 240 239 221 206 217 227 251 261 269 276 291 289 289 279 272 249 240 231 224 223 220 212 206 205 204 200 197 196 194 193 192 191 190 195 196 199 204 210 214 210 212
231 219 214 233 237 220 216 237 245 248 256 265 260 269 279 276 281 267 251 231 221 218 221 215 208 202 197 196 197 193 189 188 188 184 183 185 185 186 190 199 200 201 202 198
220 236 245 237 247 251 236 226 225 253 272 272 266 258 264 262 271 259 243 228 220 216 214 209 203 197 193 190 190 191 189 184 180 180 179 181 183 191 185 181 188 191 191 192
240 185 202 200 210 225 230 226 229 276 277 271 274 268 256 250 256 247 234 229 218 213 210 204 198 193 189 188 184 183 180 175 174 175 178 177 182 184 188 187 186 186 191 199
265 247 247 266 263 252 257 232 240 264 317 313 282 265 249 241 232 237 229 221 213 205 201 196 192 188 185 181 177 171 173 172 174 172 171 175 176 178 180 183 185 192 195 198
275 270 263 260 266 264 257 227 236 255 297 326 299 271 254 237 234 224 222 216 208 199 192 188 186 182 178 177 176 173 172 166 166 165 165 168 168 170 170 172 177 180 178 178
252 256 258 260 261 257 251 258 255 248 268 276 287 257 251 233 226 217 210 208 204 200 190 185 177 174 173 176 180 166 164 158 163 161 162 166 164 164 172 179 180 181 184 181
231 238 244 251 263 272 276 264 260 263 269 273 297 272 238 231 227 215 205 200 193 190 183 178 172 169 171 172 169 164 160 155 157 161 158 160 163 165 168 171 172 171 167 168
259 253 249 254 260 265 271 275 269 256 247 238 246 235 231 223 219 215 202 196 183 180 172 170 166 162 165 166 165 163 150 164 162 159 161 161 160 161 164 166 161 155 153 154
270 263 261 258 256 257 263 260 261 259 253 241 234 221 215 211 212 202 192 187 175 173 165 163 160 162 162 164 158 157 175 165 160 158 157 156 157 155 153 150 147 144 143 142
287 274 266 263 259 255 256 258 255 255 254 245 241 237 227 211 206 195 185 174 169 166 162 160 161 162 161 158 170 176 166 160 158 154 154 153 151 149 147 146 145 145 145 144
289 277 268 264 260 257 252 251 249 245 240 233 229 229 217 196 190 183 183 175 165 160 163 162 165 162 163 174 170 161 159 155 151 150 151 150 148 147 146 145 144 142 142 144
290 279 265 256 257 258 256 245 242 233 225 224 220 215 206 195 188 177 169 165 162 164 167 165 162 165 163 168 161 157 154 151 149 149 149 148 147 146 144 142 142 140 139 138
288 272 260 252 240 238 242 236 226 215 210 210 206 201 196 185 174 176 170 163 165 167 162 161 159 160 162 163 157 152 149 150 150 149 148 146 144 143 142 141 140 137 133 130
298 280 258 246 232 215 210 212 205 194 190 186 186 190 189 184 181 171 168 163 162 160 160 158 157 157 161 158 153 148 147 149 148 147 145 145 145 145 145 144 140 137 136 134
299 261 251 240 222 208 199 196 197 186 183 172 171 178 180 179 174 168 162 160 157 159 156 150 152 156 157 155 148 147 148 148 147 148 147 145 145 145 142 139 137 137 137 135
242 213 206 193 188 187 183 183 183 177 179 180 171 172 173 170 168 160 157 151 152 150 152 152 153 155 155 150 148 148 147 147 148 148 147 147 148 148 146 145 144 143 145 150
Wind_Speed_850mb
44 17 35 28 30 41 28 54 16 62 22 16 9 13 15 22 19 26 37 45 47 51 55 57 58 61 67 70 67 66 65 63 60 54 48 44 41 37 34 31 29 28 27 27
40 39 37 8 38 40 47 53 36 58 39 12 32 32 12 18 26 35 39 43 45 48 53 60 63 65 68 70 69 66 65 64 60 58 54 50 44 40 35 34 32 30 28 26
27 21 33 37 35 42 45 47 53 34 55 10 29 19 20 37 42 45 48 46 47 53 57 59 64 66 70 71 69 69 67 65 65 62 57 53 47 42 38 36 33 31 30 28
7 3 27 12 38 34 34 36 39 49 38 33 25 50 50 54 54 59 59 46 48 51 56 60 60 65 66 67 68 70 69 68 68 63 58 54 50 45 40 37 34 32 32 30
9 8 11 14 6 34 37 47 41 37 42 44 54 44 69 54 67 65 51 41 41 43 51 60 63 66 66 66 68 70 72 72 69 65 61 58 53 48 43 39 37 35 33 34
7 9 14 11 6 21 2 41 44 48 51 42 19 19 46 39 54 50 52 64 62 55 53 62 68 71 71 72 72 73 73 71 66 64 62 57 52 49 44 41 35 35 35 35
28 19 9 17 13 15 1 3 19 50 65 57 24 46 55 49 37 46 61 69 71 67 61 61 73 79 80 78 77 73 68 65 65 63 59 54 50 48 45 42 41 39 37 36
10 22 39 16 12 30 13 44 1 34 37 41 29 55 80 83 78 69 66 72 73 66 62 62 72 83 86 82 73 68 67 69 67 63 59 55 53 50 47 45 43 40 39 38
19 10 14 54 52 58 49 58 54 30 31 30 27 34 44 50 80 78 70 67 63 63 61 61 68 82 87 83 75 73 73 72 70 65 59 56 56 53 51 47 44 41 40 39
11 18 11 58 48 52 55 62 63 41 47 30 31 48 51 45 42 78 90 93 82 68 62 67 72 79 83 80 77 75 74 71 67 65 62 58 54 52 48 46 44 42 41 38
19 29 8 53 49 67 56 50 44 39 43 54 51 58 60 57 53 50 84 99 86 77 71 73 77 80 80 80 80 77 73 70 68 62 59 57 52 48 42 40 36 35 37 36
18 15 34 61 62 58 54 55 58 47 52 59 57 56 62 63 55 48 65 88 81 80 77 78 82 83 82 82 81 78 75 71 68 65 62 59 58 54 48 41 40 39 35 34
14 24 48 66 67 65 67 49 31 23 33 43 52 47 56 58 56 50 59 72 77 76 76 78 84 84 83 84 81 78 76 74 69 67 65 63 57 53 55 47 40 38 37 36
27 23 18 24 20 37 38 22 19 17 29 41 47 46 59 57 46 48 54 65 68 71 73 76 81 83 84 82 79 76 73 72 72 69 62 57 53 50 45 44 47 44 40 39
27 22 32 31 27 36 30 42 32 24 24 33 37 45 49 59 46 45 50 57 63 69 73 79 81 81 81 81 81 81 81 76 69 64 59 53 51 46 41 39 38 37 37 35
42 42 45 44 48 41 35 44 45 36 30 35 29 28 41 45 45 48 50 58 69 80 84 90 88 87 87 87 89 87 77 71 67 63 59 54 48 45 44 41 38 35 32 28
40 39 44 53 54 46 44 44 50 49 45 43 34 22 34 38 45 50 56 62 72 78 88 93 96 96 93 87 83 83 83 78 65 58 54 50 46 41 37 36 35 32 28 25
16 19 20 26 27 39 34 36 45 53 56 47 41 33 30 42 53 56 66 80 78 83 91 96 103 102 91 89 87 84 77 70 57 53 50 46 43 40 38 35 33 29 27 24
27 31 31 37 38 40 39 36 31 26 45 51 46 43 30 43 59 65 73 80 85 101 103 105 104 100 93 87 80 75 63 57 61 55 49 47 44 41 38 36 34 32 30 27
39 40 44 47 46 42 47 45 45 45 43 45 49 37 41 52 62 68 84 90 96 108 112 105 101 98 91 85 73 59 60 62 60 59 55 51 49 49 46 42 39 37 34 31
36 40 45 48 53 53 48 41 44 51 45 47 50 41 52 53 60 74 88 97 100 108 109 105 96 93 87 72 69 71 66 64 64 63 62 60 58 53 49 45 42 38 35 31
32 37 42 43 47 53 47 42 43 45 40 50 50 47 59 63 72 80 87 106 108 104 104 101 94 86 78 74 75 73 71 71 70 67 63 59 56 54 50 46 42 39 34 31
35 34 36 39 41 39 35 36 42 46 41 50 51 57 69 75 85 96 101 107 106 104 104 96 86 83 82 78 77 76 74 70 68 65 62 59 54 50 46 42 38 34 30 26
35 31 31 28 29 32 32 38 41 40 41 46 50 61 76 83 90 91 110 117 114 102 90 89 88 82 80 79 79 76 73 68 65 63 59 55 51 47 42 38 35 32 28 24
30 25 21 21 32 38 41 42 41 38 42 52 59 63 70 85 107 98 117 112 103 94 92 87 83 79 76 74 75 73 68 63 60 56 53 50 47 44 41 38 33 29 25 21
12 13 19 24 31 35 42 46 45 47 56 63 65 69 76 89 99 103 110 106 99 90 87 82 78 74 71 69 68 66 63 60 56 52 48 45 41 37 33 30 26 23 19 15
10 13 15 20 26 36 43 46 49 54 54 56 65 68 78 91 97 106 100 96 92 93 91 84 77 72 70 68 64 61 58 54 50 46 43 39 35 32 29 26 22 18 14 11
Wind_Direction_850mb
232 219 190 197 197 202 207 229 191 241 181 228 211 205 210 209 190 183 193 200 209 208 209 211 209 206 206 206 202 202 201 201 200 199 198 198 198 195 194 192 189 191 189 189
240 230 226 182 203 198 207 225 234 246 258 172 268 265 191 197 195 203 208 212 216 220 216 216 213 209 207 209 207 205 204 204 202 200 198 199 199 197 195 195 194 195 194 194
252 207 215 227 210 200 214 222 219 233 238 205 223 238 263 242 237 236 242 226 222 229 224 219 219 216 213 211 208 208 208 206 204 202 201 200 200 199 199 198 199 197 199 200
303 145 229 234 204 199 220 233 226 247 243 244 248 256 260 263 258 255 255 243 234 233 229 226 221 220 218 213 211 211 209 208 206 204 203 203 202 202 202 202 203 202 202 203
242 235 340 282 211 198 198 232 232 244 249 245 242 269 276 262 255 260 264 264 252 244 241 229 222 219 216 214 211 210 210 209 207 205 205 205 205 204 204 207 207 206 205 207
264 219 218 215 173 77 318 240 228 234 245 243 188 218 253 253 258 265 265 259 257 249 239 230 222 217 213 214 212 210 208 208 207 208 209 210 208 206 207 209 210 211 210 210
238 248 223 244 249 308 191 303 338 266 247 245 212 228 251 255 255 254 255 252 251 244 234 231 221 215 212 212 212 211 205 204 205 207 210 212 211 210 209 208 208 211 214 215
220 234 247 246 245 217 232 256 318 319 339 302 285 257 252 252 250 252 255 259 248 241 232 228 219 213 213 211 211 207 203 201 201 203 205 209 210 207 206 209 209 210 213 216
205 205 189 251 247 238 242 255 251 250 295 320 313 281 278 270 255 248 241 244 246 236 228 225 219 215 213 212 206 201 200 198 198 199 202 204 206 206 206 205 209 209 212 217
210 231 239 260 247 226 219 228 237 252 255 276 303 295 294 290 265 249 241 244 240 225 223 221 214 213 213 210 202 200 197 196 196 196 195 197 200 205 205 208 207 208 211 213
235 235 241 240 239 221 206 217 227 251 261 269 276 291 289 289 279 272 249 240 231 224 223 220 212 206 205 204 200 197 196 194 193 192 191 190 195 196 199 204 210 214 210 212
231 219 214 233 237 220 216 237 245 248 256 265 260 269 279 276 281 267 251 231 221 218 221 215 208 202 197 196 197 193 189 188 188 184 183 185 185 186 190 199 200 201 202 198
220 236 245 237 247 251 236 226 225 253 272 272 266 258 264 262 271 259 243 228 220 216 214 209 203 197 193 190 190 191 189 184 180 180 179 181 183 191 185 181 188 191 191 192
240 185 202 200 210 225 230 226 229 276 277 271 274 268 256 250 256 247 234 229 218 213 210 204 198 193 189 188 184 183 180 175 174 175 178 177 182 184 188 187 186 186 191 199
265 247 247 266 263 252 257 232 240 264 317 313 282 265 249 241 232 237 229 221 213 205 201 196 192 188 185 181 177 171 173 172 174 172 171 175 176 178 180 183 185 192 195 198
275 270 263 260 266 264 257 227 236 255 297 326 299 271 254 237 234 224 222 216 208 199 192 188 186 182 178 177 176 173 172 166 166 165 165 168 168 170 170 172 177 180 178 178
252 256 258 260 261 257 251 258 255 248 268 276 287 257 251 233 226 217 210 208 204 200 190 185 177 174 173 176 180 166 164 158 163 161 162 166 164 164 172 179 180 181 184 181
231 238 244 251 263 272 276 264 260 263 269 273 297 272 238 231 227 215 205 200 193 190 183 178 172 169 171 172 169 164 160 155 157 161 158 160 163 165 168 171 172 171 167 168
259 253 249 254 260 265 271 275 269 256 247 238 246 235 231 223 219 215 202 196 183 180 172 170 166 162 165 166 165 163 150 164 162 159 161 161 160 161 164 166 161 155 153 154
270 263 261 258 256 257 263 260 261 259 253 241 234 221 215 211 212 202 192 187 175 173 165 163 160 162 162 164 158 157 175 165 160 158 157 156 157 155 153 150 147 144 143 142
287 274 266 263 259 255 256 258 255 255 254 245 241 237 227 211 206 195 185 174 169 166 162 160 161 162 161 158 170 176 166 160 158 154 154 153 151 149 147 146 145 145 145 144
289 277 268 264 260 257 252 251 249 245 240 233 229 229 217 196 190 183 183 175 165 160 163 162 165 162 163 174 170 161 159 155 151 150 151 150 148 147 146 145 144 142 142 144
290 279 265 256 257 258 256 245 242 233 225 224 220 215 206 195 188 177 169 165 162 164 167 165 162 165 163 168 161 157 154 151 149 149 149 148 147 146 144 142 142 140 139 138
288 272 260 252 240 238 242 236 226 215 210 210 206 201 196 185 174 176 170 163 165 167 162 161 159 160 162 163 157 152 149 150 150 149 148 146 144 143 142 141 140 137 133 130
298 280 258 246 232 215 210 212 205 194 190 186 186 190 189 184 181 171 168 163 162 160 160 158 157 157 161 158 153 148 147 149 148 147 145 145 145 145 145 144 140 137 136 134
299 261 251 240 222 208 199 196 197 186 183 172 171 178 180 179 174 168 162 160 157 159 156 150 152 156 157 155 148 147 148 148 147 148 147 145 145 145 142 139 137 137 137 135
242 213 206 193 188 187 183 183 183 177 179 180 171 172 173 170 168 160 157 151 152 150 152 152 153 155 155 150 148 148 147 147 148 148 147 147 148 148 146 145 144 143 145 150